Location: Gad�tanya
(48.0500°N, 20.8500°E)
Time: 23:13:28
(UTC+00:00)

Lacrosse 5 rocket - Pass Details

Date: 05 July 2020
Orbit: 464 x 632 km, 57.0° (Epoch: 05 August)

Event Time Altitude Azimuth Distance (km) Brightness Sun altitude
Rises 22:56:19 0° 306° (NW) 2,706 5.3 -19.2°
Reaches altitude 10° 22:58:39 10° 311° (NW) 1,781 4.4 -19.2°
Maximum altitude 23:02:35 54° 30° (NNE) 622 1.8 -19.1°
Enters shadow 23:06:14 10° 109° (ESE) 1,658 3.6 -19.1°
